Weather reports worldwide

Advertisment
Pershore college of horticulture, United Kingdom (99059): temperature & dewpoint: 16.10.2017 00:00:00 - 22.10.2017 00:00:00 (BST)Pershore college of horticulture, United Kingdom (99059): temperature -20cm & temperature -100cm: 16.10.2017 00:00:00 - 22.10.2017 00:00:00 (BST)Pershore college of horticulture, United Kingdom (99059): precipitation: 16.10.2017 00:00:00 - 22.10.2017 00:00:00 (BST)
Date & Time tt [°C] td [°C] tt -20cm [°C] tt -100cm [°C] rr [mm]
22.10.2017 00:00:00 11,7 8,8 - - -
21.10.2017 23:00:00 11,9 9,0 - - 0,0
21.10.2017 22:00:00 11,9 9,3 - - 0,0
21.10.2017 21:00:00 11,3 10,1 - - 0,0
21.10.2017 20:00:00 11,5 11,2 - - 2,2
21.10.2017 19:00:00 11,6 10,9 - - 0,0
21.10.2017 18:00:00 11,3 10,3 - - 0,0
21.10.2017 17:00:00 11,8 10,1 - - 0,0
21.10.2017 16:00:00 12,2 9,9 - - 0,0
21.10.2017 15:00:00 13,2 9,5 - - 0,0
21.10.2017 14:00:00 13,6 8,8 - - 0,0
21.10.2017 13:00:00 13,3 8,7 - - 0,0
21.10.2017 12:00:00 13,3 9,0 - - 0,2
21.10.2017 11:00:00 13,3 9,0 - - 0,0
21.10.2017 10:00:00 13,2 8,7 13,9 14,7 0,0
21.10.2017 09:00:00 12,8 8,4 - - 0,0
21.10.2017 08:00:00 12,3 8,3 - - 0,0
21.10.2017 07:00:00 - - - - -
21.10.2017 06:00:00 - - - - -
21.10.2017 05:00:00 - - - - -
21.10.2017 04:00:00 - - - - -
21.10.2017 03:00:00 - - - - -
21.10.2017 02:00:00 - - - - -
21.10.2017 01:00:00 - - - - -
21.10.2017 00:00:00 - - - - -
20.10.2017 23:00:00 - - - - -
20.10.2017 22:00:00 - - - - -
20.10.2017 21:00:00 - - - - 0,2
20.10.2017 20:00:00 12,0 8,9 - - 0,0
20.10.2017 19:00:00 12,0 7,7 - - 0,0
20.10.2017 18:00:00 11,5 7,3 - - 0,0
20.10.2017 17:00:00 12,2 7,1 - - 0,0
20.10.2017 16:00:00 13,0 7,3 - - 0,0
20.10.2017 15:00:00 14,2 7,4 - - 0,0
20.10.2017 14:00:00 13,6 9,5 - - 0,0
20.10.2017 13:00:00 14,8 9,5 - - 0,0
20.10.2017 12:00:00 14,2 10,4 - - 0,0
20.10.2017 11:00:00 12,4 9,7 - - 0,0
20.10.2017 10:00:00 12,5 10,0 14,0 14,9 0,0
20.10.2017 09:00:00 12,5 10,3 - - 0,0
20.10.2017 08:00:00 11,9 11,2 - - 0,0
20.10.2017 07:00:00 10,7 10,1 - - 0,0
20.10.2017 06:00:00 11,8 11,0 - - 0,0
20.10.2017 05:00:00 11,9 11,7 - - 0,0
20.10.2017 04:00:00 12,0 11,7 - - 0,6
20.10.2017 03:00:00 12,0 11,3 - - 0,2
20.10.2017 02:00:00 11,9 11,1 - - 0,4
20.10.2017 01:00:00 12,5 10,5 - - 0,0
20.10.2017 00:00:00 12,8 10,5 - - 0,0
19.10.2017 23:00:00 13,5 11,9 - - 0,0
19.10.2017 22:00:00 13,5 12,2 - - 0,0
19.10.2017 21:00:00 14,0 12,2 - - 0,0
19.10.2017 20:00:00 14,0 12,6 - - 0,4
19.10.2017 19:00:00 13,9 12,7 - - 0,2
19.10.2017 18:00:00 13,9 12,7 - - 0,2
19.10.2017 17:00:00 14,2 13,0 - - 0,0
19.10.2017 16:00:00 14,1 13,5 - - 1,8
19.10.2017 15:00:00 16,2 15,1 - - 0,0
19.10.2017 14:00:00 14,7 14,7 - - 0,2
19.10.2017 13:00:00 14,0 14,0 - - 4,0
19.10.2017 12:00:00 12,9 12,9 - - 1,8
19.10.2017 11:00:00 12,6 12,6 - - 1,8
19.10.2017 10:00:00 12,2 12,1 14,0 15,0 0,2
19.10.2017 09:00:00 11,8 11,8 - - 0,0
19.10.2017 08:00:00 11,3 11,3 - - 0,0
19.10.2017 07:00:00 11,1 11,0 - - 0,0
19.10.2017 06:00:00 11,0 11,0 - - 0,2
19.10.2017 05:00:00 11,1 11,1 - - 0,0
19.10.2017 04:00:00 11,3 11,3 - - 0,0
19.10.2017 03:00:00 11,3 11,3 - - 0,0
19.10.2017 02:00:00 10,9 10,9 - - 0,0
19.10.2017 01:00:00 11,3 11,3 - - 0,0
19.10.2017 00:00:00 11,3 11,3 - - 0,0
18.10.2017 23:00:00 11,2 11,2 - - 0,0
18.10.2017 22:00:00 11,2 11,2 - - 0,0
18.10.2017 21:00:00 11,0 11,0 - - 0,0
18.10.2017 20:00:00 11,0 11,0 - - 0,0
18.10.2017 19:00:00 10,9 10,8 - - 0,0
18.10.2017 18:00:00 10,9 10,7 - - 0,2
18.10.2017 17:00:00 10,9 10,5 - - 0,0
18.10.2017 16:00:00 10,9 10,4 - - 0,0
18.10.2017 15:00:00 10,9 10,3 - - 0,0
18.10.2017 14:00:00 10,7 10,3 - - 0,0
18.10.2017 13:00:00 10,5 9,8 - - 0,0
18.10.2017 12:00:00 10,4 9,5 - - 0,0
18.10.2017 11:00:00 10,1 9,4 - - 0,0
18.10.2017 10:00:00 9,9 9,1 14,4 15,0 0,0
18.10.2017 09:00:00 10,0 9,0 - - 0,0
18.10.2017 08:00:00 9,7 8,7 - - 0,0
18.10.2017 07:00:00 9,7 8,4 - - 0,0
18.10.2017 06:00:00 9,6 8,4 - - 0,0
18.10.2017 05:00:00 9,5 8,7 - - 0,0
18.10.2017 04:00:00 9,7 8,7 - - 0,4
18.10.2017 03:00:00 9,8 8,6 - - 0,0
18.10.2017 02:00:00 9,9 8,6 - - 0,2
18.10.2017 01:00:00 10,0 8,9 - - 0,0
18.10.2017 00:00:00 10,7 10,3 - - 0,6
17.10.2017 23:00:00 10,8 10,0 - - 0,2
17.10.2017 22:00:00 11,4 10,1 - - 0,0
17.10.2017 21:00:00 11,6 9,4 - - 0,0
17.10.2017 20:00:00 11,5 9,2 - - 0,0
17.10.2017 19:00:00 12,4 9,3 - - 0,0
17.10.2017 18:00:00 13,2 9,3 - - 0,0
17.10.2017 17:00:00 14,1 9,4 - - 0,0
17.10.2017 16:00:00 15,2 9,0 - - 0,0
17.10.2017 15:00:00 16,2 7,2 - - 0,0
17.10.2017 14:00:00 17,1 7,4 - - 0,0
17.10.2017 13:00:00 16,4 6,6 - - 0,0
17.10.2017 12:00:00 16,0 8,1 - - 0,0
17.10.2017 11:00:00 14,5 9,2 - - 0,0
17.10.2017 10:00:00 13,1 9,3 14,4 15,0 0,0
17.10.2017 09:00:00 10,8 8,3 - - 0,0
17.10.2017 08:00:00 9,8 8,0 - - 0,0
17.10.2017 07:00:00 10,0 7,7 - - 0,0
17.10.2017 06:00:00 10,6 7,9 - - 0,0
17.10.2017 05:00:00 10,5 7,1 - - 0,0
17.10.2017 04:00:00 11,7 7,3 - - 0,0
17.10.2017 03:00:00 12,2 8,0 - - 0,0
17.10.2017 02:00:00 13,2 7,3 - - 0,0
17.10.2017 01:00:00 13,1 7,9 - - 0,0
17.10.2017 00:00:00 13,7 7,9 - - 0,0
16.10.2017 23:00:00 14,1 7,8 - - 0,0
16.10.2017 22:00:00 14,3 7,4 - - 0,0
16.10.2017 21:00:00 14,6 6,9 - - 0,0
16.10.2017 20:00:00 14,9 7,7 - - 0,0
16.10.2017 19:00:00 15,0 7,5 - - 0,0
16.10.2017 18:00:00 15,8 7,2 - - 0,0
16.10.2017 17:00:00 17,3 8,3 - - 0,0
16.10.2017 16:00:00 18,6 9,1 - - 0,0
16.10.2017 15:00:00 19,1 11,7 - - 0,0
16.10.2017 14:00:00 - - - - 0,0
16.10.2017 13:00:00 19,1 14,5 - - 0,0
16.10.2017 12:00:00 19,1 15,2 - - 0,0
16.10.2017 11:00:00 20,2 15,0 - - 0,0
16.10.2017 10:00:00 20,1 15,4 14,9 15,0 0,0
16.10.2017 09:00:00 18,7 15,7 - - 0,0
16.10.2017 08:00:00 17,0 15,2 - - 0,0
16.10.2017 07:00:00 15,8 15,1 - - 0,0
16.10.2017 06:00:00 14,9 14,7 - - 0,2
16.10.2017 05:00:00 14,8 14,8 - - 0,0
16.10.2017 04:00:00 13,8 13,7 - - 0,0
16.10.2017 03:00:00 14,0 13,5 - - 0,0
16.10.2017 02:00:00 14,8 14,1 - - 0,0
16.10.2017 01:00:00 15,5 14,8 - - 0,0
16.10.2017 00:00:00 14,7 13,8 - - 0,0

tt = temperature
td = dewpoint
tt -20cm = temperature -20cm
tt -100cm = temperature -100cm
rr = precipitation

Next stations